DELTA 1 DEB, 21434

Orbit data source: Space-Track

DELTA 1 DEB, 21434 is space debris in SSO originally from a launch on Thu, 12 Jun 1975 UTC launched from the Air Force Western Test Range (AFWTR). Debris objects in space refer to the collection of defunct objects orbiting the Earth. Examples of debris include non-operational satellites, rocket bodies, and fragments generated from explosions, collisions, or faulty payload assembly.

Loading next visibility...
Identifier
21434, 1975-052DS
Orbit
SSO
Country
Flag of USUS
Related business
Manufacturer
Unknown
Mission
Spacecraft
Bus & Motor
Unknown
Mass
Unknown
Launch date (UTC)
1975-06-12 (51 years ago)
Launch vehicle
Unknown
Launch site
Air Force Western Test Range (AFWTR)
Object type
Payload
Rocket body
Debris
Shape & HBR
Unknown shape, 0.1 m
Radar Cross Section
Medium (>0.1 m² and <1 m²)

Expand to show TLE details & history
Last TLE update: 2 days ago

TLE from 2 days ago
0 DELTA 1 DEB
1 21434U 75052DS  26171.12437164  .00000179  00000-0  10916-2 0  9994
2 21434  99.4634 240.2762 0655765 272.7997 108.5594 12.16319558559205
Epoch: 2026-06-20T02:59Z
TLE epoch observation values (Epoch: 2026-06-20T02:59:05.709Z)
Latitude
27.90197°
Longitude
-77.88093°
Altitude
1,808.374 km
Speed
6.895 km/s
True Right ascension
15h 40m 56s
True Declination
27° 46' 42"
Sunlit
Object was in daylight at epoch
Visualization orbit readout
Latitude
Unknown
Longitude
Unknown
Altitude
Unknown
Speed
Unknown
Apparent Right ascension
Unknown
Apparent Declination
Unknown
Sunlit
N/A
Visualization observer readout
Local Sidereal Time
00:51:02
Azimuth
Unknown
Elevation
Unknown
Doppler factor
Unknown
Orbital elements
Apogee altitude
2,129.644 km
Perigee altitude
1,082.492 km
Semi-major axis
7,984.205 km
Eccentricity
0.06558
Inclination
99.4634°
RAAN
240.2762°
Arg. of periapsis
272.7997°
True anomaly
115.48496°
Mean anomaly
108.5594°
Eccentric anomaly
112.04203°
Mean motion
3.04226 °/min
Orbital period
118.33 mins
BSTAR
0.0010916
Loading maneuver chart data...
Computing Atmospheric mass density...

Documentation

Showing up to 5 results
|